Location: St. Louis
(38.6270°N, 90.1994°W)
Time: 04:44:58
(UTC-05:00)

deb Delta - Pass Details

Date: 12 July 2022
Orbit: 1084 x 1202 km, 99.8° (Epoch: 15 August)

Event Time Altitude Azimuth Distance (km) Brightness Sun altitude
Exits shadow 03:31:52 20° 261° (W) 2,474 ? -20.5°
Maximum altitude 03:32:28 20° 268° (W) 2,462 ? -20.4°
Drops below altitude 10° 03:37:26 10° 312° (NW) 3,111 ? -19.9°
Sets 03:40:56 0° 329° (NNW) 4,061 ? -19.4°
